[[{"header":{"parameterUnit":"m.s-1","parameterCategory":1,"la1":30.2991,"la2":30.254,"lo1":-89.0895,"lo2":-89.0444,"dx":0.0017,"dy":0.0017,"nx":28,"ny":28,"refTime":"2022-11-29T09:00:00:Z","depth":0,"parameterNumber":2,"parameterNumberName":"U-component_of_WINDS"},"data":[0,0,0,0,0,0,0,0,0,0,0,0,0,0,0,0,0,0,0,0,0,0,0,0,0,0,0,0,0,0,0,0,0,0,0,0,0,0,0,0,0,0,0,0,0,0,0,0,0,0,0,0,0,0,0,0,0,0,3.0928,3.0928,0,3.0902,3.0902,3.0902,3.0843,3.0842,3.0841,3.084,3.0815,3.0815,3.0816,0,0,0,0,0,0,0,0,0,0,0,0,0,3.0932,3.0932,3.0928,3.0928,3.0927,3.0902,3.0902,3.0902,3.0843,3.0842,3.084,3.0839,3.0815,3.0815,3.0816,0,0,0,0,0,0,0,0,0,0,0,0,0,3.0921,3.0932,3.0928,3.0895,3.0892,3.0902,3.0902,3.0902,3.0844,3.0842,3.084,3.0838,3.0815,3.0815,3.0816,3.0857,0,0,3.0818,3.0818,0,0,0,0,0,0,0,0,3.0921,3.0921,3.09,3.0898,3.0894,3.0874,3.0894,3.0887,3.0844,3.0862,3.084,3.0838,3.0836,3.0835,3.0834,3.0855,3.0854,3.0818,3.0819,3.0819,3.0819,0,0,0,0,0,0,0,3.0922,3.0921,3.0918,3.09,3.0896,3.0884,3.088,3.0892,3.086,3.086,3.0856,3.0854,3.0834,3.0834,3.0833,3.0854,3.0818,3.0819,3.0819,3.082,3.0912,3.0914,0,0,0,0,0,0,3.0927,3.0922,3.0919,3.0917,3.0903,3.0885,3.0881,3.0882,3.0859,3.0854,3.0855,3.0851,3.0833,3.0832,3.0832,3.088,3.0819,3.082,3.082,3.091,3.0913,3.0915,0,0,0,0,0,0,3.0928,3.0927,3.092,3.0919,3.0917,3.0887,3.0889,3.0883,3.0882,3.0856,3.085,3.0861,3.0832,3.0831,3.0852,3.0879,3.082,3.0821,3.0908,3.0911,3.0914,3.0976,0,0,0,0,0,0,3.0928,3.0928,3.0941,3.0919,3.0917,3.0938,3.089,3.0884,3.0883,3.0878,3.0859,3.0854,3.083,3.0851,3.0853,3.0879,3.0821,3.0905,3.0909,3.0913,3.0972,3.0981,3.0989,0,0,0,0,0,3.0928,3.0959,3.0942,3.0942,3.0933,3.094,3.0939,3.091,3.0886,3.09,3.0884,3.0855,3.0876,3.0854,3.0855,3.0882,3.0903,3.0908,3.0912,3.0968,3.0979,3.0989,0,0,0,0,0,0,3.0984,3.0956,3.0936,3.0961,3.0954,3.093,3.0947,3.0923,3.0922,3.0917,3.0883,3.0879,3.0905,3.0895,3.0871,3.0922,3.0885,3.089,3.0927,3.0938,3.0946,3.0948,3.0822,0,0,0,0,0,3.1,3.1007,3.0982,3.1006,3.1004,3.0977,3.0978,3.0958,3.0949,3.0945,3.093,3.0923,3.0929,3.0933,3.0936,3.0971,3.0967,3.099,3.0999,3.1006,3.1011,3.1032,3.1043,3.093,3.093,3.093,0,0,3.1031,3.1017,3.1023,3.1017,3.1009,3.1019,3.0974,3.0985,3.0993,3.0947,3.0966,3.0955,3.0946,3.0975,3.0987,3.0967,3.1042,3.1012,3.1018,3.1019,3.1038,3.1049,3.1058,3.0933,3.0932,3.0932,0,0,3.1094,3.1083,3.1103,3.1097,3.1086,3.1068,3.1074,3.1055,3.1046,3.1065,3.1032,3.1042,3.1051,3.1046,3.1045,3.1113,3.1087,3.1115,3.116,3.1182,3.119,3.1198,3.1224,3.1234,3.112,3.112,3.112,0,3.1134,3.1147,3.1117,3.1132,3.1132,3.1092,3.1114,3.111,3.11,3.1102,3.1081,3.1095,3.1085,3.1114,3.1131,3.1131,3.1138,3.1116,3.1191,3.1199,3.1206,3.123,3.124,3.1124,3.1123,3.1123,3.1123,0,3.1199,3.1208,3.1227,3.122,3.1222,3.124,3.1215,3.1222,3.1203,3.1188,3.1211,3.1199,3.1201,3.1206,3.1187,3.1234,3.1223,3.1197,3.1159,3.1221,3.1243,3.1252,3.1129,3.1127,3.1126,3.1126,0,0,3.1292,3.1272,3.1279,3.1277,3.1264,3.1272,3.1291,3.1293,3.13,3.1297,3.1313,3.1324,3.1302,3.1301,3.1281,3.13,3.1358,3.1273,3.1272,3.129,3.1412,3.1431,3.1442,3.1341,3.1343,3.1344,3.1413,0,3.1351,3.138,3.1357,3.1391,3.1402,3.1367,3.1384,3.1379,3.1368,3.1377,3.1364,3.1374,3.1342,3.1342,3.1359,3.1347,3.1382,3.1342,3.1357,3.1358,3.136,3.1454,3.1473,3.1538,3.1422,3.1423,3.1424,0,3.1423,3.1425,3.146,3.1449,3.1453,3.1468,3.1471,3.1479,3.1474,3.1465,3.1467,3.1444,3.1464,3.1429,3.1458,3.1431,3.1437,3.1433,3.1435,3.1434,3.1394,3.1457,3.1558,3.1569,3.1437,3.1436,3.1435,0,3.149,3.1501,3.1524,3.1523,3.151,3.1523,3.1518,3.1512,3.1517,3.152,3.1523,3.1528,3.1532,3.1538,3.1518,3.1494,3.1551,3.1513,3.1545,3.1546,3.1557,3.1557,3.1662,3.1562,3.1561,3.1561,3.1561,0,3.1558,3.1582,3.1554,3.1568,3.1595,3.157,3.1598,3.159,3.1586,3.16,3.1571,3.1585,3.1559,3.1571,3.1557,3.1584,3.1586,3.158,3.1576,3.1583,3.1584,3.1585,3.158,3.1564,3.1563,3.1563,3.1562,0,3.1636,3.1618,3.1642,3.1629,3.1627,3.1647,3.1637,3.1652,3.164,3.1659,3.1662,3.1644,3.1658,3.164,3.1651,3.1642,3.168,3.1669,3.1681,3.1678,3.1712,3.171,3.1822,3.1836,3.1727,3.1728,3.1729,0,3.168,3.1698,3.1689,3.1696,3.1694,3.1706,3.1711,3.1689,3.1696,3.1695,3.171,3.1722,3.1729,3.1753,3.1742,3.1752,3.1742,3.1781,3.1743,3.175,3.1743,3.1743,3.1745,3.1788,3.1789,3.179,3.1791,0,3.1762,3.1754,3.1762,3.1769,3.1776,3.178,3.1782,3.1791,3.1768,3.1778,3.1791,3.1798,3.1812,3.1824,3.1832,3.1829,3.1807,3.1804,3.1812,3.1818,3.1825,3.1823,3.1703,3.1801,3.18,3.1799,3.1798,3.1798,3.1824,3.184,3.1837,3.1849,3.1849,3.1852,3.1866,3.1858,3.1869,3.1878,3.1865,3.1884,3.1884,3.1892,3.1893,3.1908,3.1891,3.1903,3.1906,3.1909,3.1915,3.1824,3.1909,3.1909,3.1909,3.1909,3.1908,0,3.1906,3.1903,3.1914,3.1919,3.193,3.1909,3.1912,3.1922,3.1938,3.194,3.195,3.1968,3.1982,3.1974,3.1986,3.2,3.1991,3.2004,3.2003,3.2003,3.1928,3.192,3.2012,3.2012,3.2012,3.2012,3.2012,3.2012,3.1949,3.1975,3.1967,3.1995,3.1992,3.201,3.2014,3.2018,3.202,3.2042,3.2053,3.2048,3.2047,3.206,3.2073,3.207,3.2077,3.2094,3.2088,3.2018,3.2008,3.1998,3.199,3.2095,3.2095,3.2162,3.2162,3.2163]},{"header":{"parameterUnit":"m.s-1","parameterCategory":1,"la1":30.2991,"la2":30.254,"lo1":-89.0895,"lo2":-89.0444,"dx":0.0017,"dy":0.0017,"nx":28,"ny":28,"refTime":"2022-11-29T09:00:00:Z","depth":0,"parameterNumber":3,"parameterNumberName":"V-component_of_WINDS"},"data":[0,0,0,0,0,0,0,0,0,0,0,0,0,0,0,0,0,0,0,0,0,0,0,0,0,0,0,0,0,0,0,0,0,0,0,0,0,0,0,0,0,0,0,0,0,0,0,0,0,0,0,0,0,0,0,0,0,0,2.5741,2.5742,0,2.5865,2.5866,2.5868,2.587,2.5869,2.5867,2.5866,2.5993,2.5998,2.6003,0,0,0,0,0,0,0,0,0,0,0,0,0,2.5508,2.5513,2.5741,2.5742,2.5744,2.5865,2.5866,2.5868,2.587,2.5869,2.5867,2.5865,2.5992,2.5997,2.6003,0,0,0,0,0,0,0,0,0,0,0,0,0,2.5618,2.5514,2.5741,2.576,2.5763,2.5864,2.5866,2.5868,2.5871,2.5869,2.5866,2.5864,2.599,2.5997,2.6004,2.6095,0,0,2.6026,2.6029,0,0,0,0,0,0,0,0,2.5612,2.5627,2.5755,2.5759,2.5762,2.585,2.5831,2.5944,2.5871,2.583,2.5866,2.5863,2.5947,2.5958,2.5986,2.6101,2.6107,2.6027,2.6031,2.6034,2.6036,0,0,0,0,0,0,0,2.5605,2.5622,2.579,2.5757,2.5761,2.5763,2.5776,2.5853,2.59,2.5833,2.5834,2.5848,2.5949,2.5979,2.5989,2.6108,2.6027,2.6033,2.6038,2.604,2.6306,2.6309,0,0,0,0,0,0,2.5593,2.5615,2.5786,2.5794,2.568,2.5769,2.5783,2.5824,2.5899,2.5909,2.585,2.5848,2.5968,2.5981,2.5994,2.6107,2.6034,2.6041,2.6045,2.6304,2.6307,2.631,0,0,0,0,0,0,2.5588,2.5608,2.5781,2.5705,2.5727,2.5775,2.5821,2.5828,2.5858,2.5912,2.5921,2.5873,2.5967,2.5984,2.607,2.6111,2.6044,2.6051,2.63,2.6305,2.6308,2.6333,0,0,0,0,0,0,2.5581,2.5606,2.5641,2.5705,2.5731,2.5855,2.5823,2.5832,2.587,2.5869,2.5935,2.5944,2.5966,2.606,2.6078,2.612,2.6057,2.6297,2.6302,2.6307,2.6329,2.6337,2.6345,0,0,0,0,0,2.5573,2.5642,2.5642,2.5663,2.5775,2.5857,2.5872,2.5896,2.5874,2.5909,2.5944,2.5942,2.6104,2.6068,2.6089,2.6134,2.6295,2.6301,2.6307,2.6325,2.6335,2.6344,0,0,0,0,0,0,2.5581,2.5651,2.5652,2.5744,2.5795,2.5857,2.5903,2.5906,2.5963,2.5959,2.5987,2.6002,2.6089,2.612,2.6079,2.6227,2.6197,2.6207,2.6204,2.6214,2.6222,2.6213,2.6063,0,0,0,0,0,2.5593,2.5654,2.5712,2.5788,2.5813,2.5854,2.589,2.5905,2.5958,2.5979,2.6021,2.6073,2.6136,2.6177,2.6237,2.6333,2.6349,2.6374,2.6382,2.6389,2.6398,2.6453,2.6465,2.633,2.633,2.633,0,0,2.562,2.5666,2.5702,2.5791,2.5832,2.5894,2.5872,2.5939,2.5986,2.599,2.6074,2.6107,2.6167,2.6259,2.6302,2.6288,2.6439,2.6397,2.6401,2.6407,2.646,2.6473,2.6484,2.6334,2.6333,2.6333,0,0,2.57,2.5741,2.5809,2.5851,2.5913,2.594,2.5956,2.6019,2.6041,2.6126,2.6131,2.6188,2.6295,2.6338,2.6374,2.6474,2.6474,2.6492,2.6535,2.6588,2.6598,2.6608,2.6645,2.6658,2.6501,2.6501,2.6501,0,2.5725,2.582,2.5844,2.5912,2.5951,2.5958,2.6028,2.6068,2.6147,2.6174,2.6157,2.6294,2.6334,2.6438,2.6462,2.6491,2.6511,2.6485,2.6595,2.6605,2.6614,2.665,2.6663,2.6503,2.6503,2.6503,2.6502,0,2.5848,2.5914,2.5962,2.6039,2.6084,2.6152,2.6188,2.623,2.6241,2.627,2.6358,2.6408,2.6479,2.6505,2.6515,2.661,2.66,2.6589,2.6559,2.6629,2.6662,2.6676,2.6506,2.6505,2.6505,2.6504,0,0,2.5936,2.6027,2.6044,2.608,2.615,2.6201,2.6271,2.6341,2.6378,2.6433,2.6493,2.6584,2.6575,2.6616,2.6632,2.6679,2.6756,2.6662,2.6664,2.6679,2.6866,2.6874,2.689,2.6757,2.6759,2.6762,2.6861,0,2.6025,2.6149,2.6174,2.6281,2.6343,2.6352,2.6413,2.6463,2.6492,2.655,2.6582,2.6647,2.6629,2.6654,2.67,2.6737,2.6794,2.673,2.6814,2.6817,2.68,2.6907,2.6916,2.7008,2.6874,2.6877,2.6878,0,2.6145,2.6204,2.6318,2.6381,2.6408,2.6463,2.653,2.6584,2.6642,2.666,2.6707,2.6718,2.6793,2.6759,2.6862,2.6818,2.6854,2.6877,2.6881,2.6891,2.6852,2.6921,2.7037,2.7051,2.6899,2.6897,2.6896,0,2.6199,2.6307,2.6389,2.6419,2.6495,2.6534,2.6567,2.6623,2.6664,2.6723,2.6751,2.6818,2.6854,2.6907,2.6936,2.6909,2.7038,2.7006,2.7056,2.7056,2.7083,2.7081,2.7209,2.7105,2.7105,2.7104,2.7104,0,2.6297,2.6366,2.6415,2.6466,2.6545,2.6573,2.6651,2.6684,2.6734,2.6792,2.6803,2.6858,2.6893,2.6953,2.6977,2.706,2.7076,2.7094,2.7099,2.7093,2.7091,2.7118,2.7113,2.7108,2.7107,2.7107,2.7106,0,2.637,2.6406,2.6497,2.6562,2.658,2.6636,2.6692,2.6742,2.6772,2.6846,2.6865,2.6912,2.6983,2.7018,2.7106,2.7122,2.7217,2.7218,2.7198,2.72,2.7249,2.7244,2.7398,2.742,2.7301,2.7302,2.7303,0,2.643,2.6485,2.6556,2.6596,2.6631,2.6695,2.6737,2.6768,2.6812,2.6883,2.6925,2.6997,2.7057,2.7171,2.7213,2.7282,2.7285,2.7334,2.7295,2.7288,2.7288,2.7284,2.7291,2.7341,2.7343,2.7344,2.7344,0,2.6534,2.6549,2.661,2.6678,2.6729,2.6784,2.6838,2.687,2.6909,2.6959,2.7032,2.7078,2.7169,2.7241,2.7313,2.7348,2.7354,2.7356,2.7372,2.7367,2.7353,2.7363,2.7218,2.7353,2.7352,2.7351,2.7351,2.735,2.6603,2.6653,2.6711,2.678,2.6824,2.6874,2.6926,2.6963,2.7024,2.7101,2.7115,2.7194,2.7252,2.7349,2.7387,2.745,2.7439,2.7461,2.7466,2.7472,2.7475,2.7343,2.7463,2.7462,2.7462,2.7462,2.7462,0,2.6708,2.6747,2.6809,2.6885,2.694,2.694,2.7,2.7046,2.7115,2.7169,2.7227,2.7313,2.7383,2.7432,2.7504,2.7545,2.7549,2.7563,2.756,2.7569,2.748,2.746,2.7558,2.7558,2.7558,2.7558,2.7558,2.7558,2.6769,2.6853,2.6876,2.6983,2.7021,2.7098,2.7133,2.718,2.7224,2.7319,2.7378,2.7409,2.7462,2.7538,2.7603,2.7616,2.7642,2.7656,2.7669,2.7585,2.7575,2.7565,2.7547,2.7661,2.7661,2.7753,2.7754,2.7754]}]]